When you browse on this site, cookies collect data to enhance your experience and personalize the content and advertising you see.
Visit our Privacy Policy to learn more. By continuing to use the site, you agree to this use of cookies and data.
  • In Austria
  • List of Countries
  • For 7 days
  • Water Temperature
  • Weather Map
  • News
  • Weather Widgets
  • user-avatar
    Login

    Hourly Weather Oyem

    Today, 23 January, Thursday

    Time Temperature Precipitation Wind Pressure Humidity
    00:00 +24°C° 0 mm 1 mps 702 mmHg 87%
    01:00 +21°C° 0 mm 0 mps 702 mmHg 93%
    02:00 +21°C° 0 mm 0 mps 702 mmHg 94%
    03:00 +21°C° 0 mm 0 mps 702 mmHg 95%
    04:00 +21°C° 0 mm 0 mps 702 mmHg 95%
    05:00 +23°C° 0 mm 1 mps 703 mmHg 95%
    06:00 +23°C° 0 mm 1 mps 703 mmHg 95%
    07:00 +23°C° 0 mm 1 mps 704 mmHg 94%
    08:00 +26°C° 0 mm 1 mps 704 mmHg 82%
    09:00 +28°C° 0 mm 1 mps 705 mmHg 70%
    10:00 +30°C° 0 mm 1 mps 705 mmHg 58%
    11:00 +32°C° 0 mm 1 mps 705 mmHg 49%
    12:00 +33°C° 0 mm 1 mps 704 mmHg 40%
    13:00 +35°C° 0 mm 1 mps 703 mmHg 31%
    14:00 +35°C° 0 mm 1 mps 703 mmHg 30%
    15:00 +35°C° 0 mm 1 mps 702 mmHg 29%
    16:00 +35°C° 0 mm 1 mps 702 mmHg 27%
    17:00 +32°C° 0 mm 1 mps 702 mmHg 33%
    18:00 +28°C° 0 mm 0 mps 702 mmHg 38%
    19:00 +25°C° 0 mm 0 mps 701 mmHg 43%
    20:00 +24°C° 0 mm 0 mps 702 mmHg 52%
    21:00 +25°C° 0 mm 1 mps 702 mmHg 60%
    22:00 +24°C° 0 mm 1 mps 703 mmHg 68%
    23:00 +24°C° 0 mm 1 mps 702 mmHg 76%

    Tomorrow, 24 January, Friday

    Time Temperature Precipitation Wind Pressure Humidity
    00:00 +23°C° 0 mm 1 mps 702 mmHg 83%
    01:00 +23°C° 0 mm 1 mps 702 mmHg 91%
    02:00 +23°C° 0 mm 1 mps 702 mmHg 93%
    03:00 +22°C° 0 mm 1 mps 702 mmHg 96%
    04:00 +20°C° 0 mm 0 mps 702 mmHg 98%
    05:00 +20°C° 0 mm 0 mps 703 mmHg 97%
    06:00 +22°C° 0 mm 1 mps 703 mmHg 96%
    07:00 +23°C° 0 mm 1 mps 704 mmHg 96%
    08:00 +25°C° 0 mm 1 mps 704 mmHg 82%
    09:00 +28°C° 0 mm 1 mps 705 mmHg 69%
    10:00 +30°C° 0 mm 1 mps 705 mmHg 56%
    11:00 +32°C° 0 mm 1 mps 705 mmHg 46%
    12:00 +33°C° 0 mm 1 mps 704 mmHg 37%
    13:00 +35°C° 0 mm 1 mps 704 mmHg 28%
    14:00 +35°C° 0 mm 1 mps 704 mmHg 27%
    15:00 +35°C° 0 mm 1 mps 703 mmHg 25%
    16:00 +35°C° 0 mm 1 mps 702 mmHg 23%
    17:00 +30°C° 0 mm 0 mps 702 mmHg 28%
    18:00 +27°C° 0 mm 0 mps 702 mmHg 34%
    19:00 +25°C° 0 mm 0 mps 702 mmHg 39%
    20:00 +24°C° 0 mm 0 mps 702 mmHg 46%
    21:00 +25°C° 0 mm 1 mps 703 mmHg 52%
    22:00 +23°C° 0 mm 1 mps 703 mmHg 59%
    23:00 +23°C° 0 mm 1 mps 703 mmHg 69%

    Day after tomorrow, 25 January, Saturday

    Time Temperature Precipitation Wind Pressure Humidity
    00:00 +23°C° 0 mm 1 mps 703 mmHg 79%
    01:00 +22°C° 0 mm 1 mps 703 mmHg 88%
    02:00 +22°C° 0 mm 1 mps 702 mmHg 92%
    03:00 +22°C° 0 mm 1 mps 702 mmHg 95%
    04:00 +21°C° 0 mm 1 mps 702 mmHg 98%
    05:00 +21°C° 0 mm 1 mps 703 mmHg 98%
    06:00 +22°C° 0 mm 1 mps 703 mmHg 97%
    07:00 +22°C° 0 mm 1 mps 704 mmHg 97%
    08:00 +24°C° 0 mm 1 mps 704 mmHg 86%
    09:00 +26°C° 0 mm 1 mps 705 mmHg 75%
    10:00 +28°C° 0 mm 1 mps 705 mmHg 64%
    11:00 +30°C° 0 mm 1 mps 705 mmHg 53%
    12:00 +32°C° 0 mm 1 mps 705 mmHg 42%
    13:00 +35°C° 0 mm 1 mps 704 mmHg 30%
    14:00 +35°C° 0 mm 1 mps 704 mmHg 28%
    15:00 +35°C° 0 mm 1 mps 703 mmHg 26%
    16:00 +33°C° 0 mm 0 mps 702 mmHg 24%
    17:00 +30°C° 0 mm 0 mps 702 mmHg 30%
    18:00 +28°C° 0 mm 0 mps 702 mmHg 36%
    19:00 +25°C° 0 mm 0 mps 702 mmHg 42%
    20:00 +24°C° 0 mm 0 mps 702 mmHg 49%
    21:00 +25°C° 0 mm 1 mps 703 mmHg 56%
    22:00 +24°C° 0 mm 1 mps 703 mmHg 63%
    23:00 +23°C° 0 mm 1 mps 703 mmHg 70%

    26 January, Sunday

    Time Temperature Precipitation Wind Pressure Humidity
    00:00 +23°C° 0 mm 1 mps 703 mmHg 78%
    01:00 +23°C° 0 mm 1 mps 703 mmHg 86%
    02:00 +22°C° 0 mm 1 mps 703 mmHg 90%
    03:00 +22°C° 0 mm 1 mps 703 mmHg 94%
    04:00 +22°C° 0 mm 1 mps 703 mmHg 98%
    05:00 +22°C° 0 mm 1 mps 703 mmHg 97%
    06:00 +22°C° 0 mm 1 mps 703 mmHg 96%
    07:00 +22°C° 0 mm 1 mps 704 mmHg 96%
    08:00 +24°C° 0 mm 1 mps 704 mmHg 87%
    09:00 +25°C° 0 mm 1 mps 705 mmHg 79%
    10:00 +27°C° 0 mm 2 mps 705 mmHg 71%
    11:00 +29°C° 0 mm 1 mps 705 mmHg 63%
    12:00 +30°C° 0 mm 1 mps 704 mmHg 56%
    13:00 +32°C° 0 mm 1 mps 704 mmHg 48%
    14:00 +33°C° 0 mm 1 mps 703 mmHg 43%
    15:00 +32°C° 0 mm 0 mps 703 mmHg 37%
    16:00 +32°C° 0 mm 0 mps 702 mmHg 32%
    17:00 +30°C° 0 mm 0 mps 702 mmHg 38%
    18:00 +30°C° 0 mm 1 mps 702 mmHg 43%
    19:00 +27°C° 0 mm 1 mps 702 mmHg 49%
    20:00 +26°C° 0 mm 1 mps 703 mmHg 57%
    21:00 +25°C° 0 mm 1 mps 703 mmHg 64%
    22:00 +24°C° 0 mm 2 mps 704 mmHg 72%
    23:00 +24°C° 0 mm 1 mps 703 mmHg 79%

    27 January, Monday

    Time Temperature Precipitation Wind Pressure Humidity
    00:00 +23°C° 0 mm 1 mps 703 mmHg 86%
    01:00 +23°C° 0 mm 1 mps 703 mmHg 93%
    02:00 +23°C° 0 mm 1 mps 703 mmHg 93%
    03:00 +23°C° 0 mm 1 mps 703 mmHg 94%
    04:00 +23°C° 0 mm 1 mps 703 mmHg 95%
    05:00 +23°C° 0 mm 1 mps 703 mmHg 93%
    06:00 +23°C° 0 mm 1 mps 703 mmHg 92%
    07:00 +23°C° 0 mm 1 mps 704 mmHg 90%
    08:00 +25°C° 0 mm 1 mps 704 mmHg 83%
    09:00 +26°C° 0 mm 1 mps 705 mmHg 76%
    10:00 +28°C° 0 mm 1 mps 705 mmHg 69%
    11:00 +29°C° 0 mm 1 mps 705 mmHg 65%
    12:00 +30°C° 0 mm 2 mps 704 mmHg 61%
    13:00 +31°C° 0 mm 2 mps 704 mmHg 56%
    14:00 +31°C° 0 mm 2 mps 703 mmHg 51%
    15:00 +32°C° 0 mm 1 mps 703 mmHg 46%
    16:00 +33°C° 0 mm 1 mps 702 mmHg 41%
    17:00 +31°C° 0 mm 1 mps 702 mmHg 48%
    18:00 +29°C° 0 mm 1 mps 702 mmHg 55%
    19:00 +26°C° 0 mm 1 mps 702 mmHg 62%
    20:00 +26°C° 0 mm 1 mps 703 mmHg 70%
    21:00 +25°C° 0 mm 1 mps 703 mmHg 78%
    22:00 +24°C° 0 mm 1 mps 704 mmHg 86%
    23:00 +23°C° 0 mm 1 mps 704 mmHg 89%

    28 January, Tuesday

    Time Temperature Precipitation Wind Pressure Humidity
    00:00 +23°C° 0 mm 1 mps 703 mmHg 92%
    01:00 +22°C° 0 mm 1 mps 703 mmHg 95%
    02:00 +22°C° 0 mm 1 mps 703 mmHg 96%
    03:00 +22°C° 0 mm 1 mps 703 mmHg 97%
    04:00 +21°C° 0 mm 1 mps 702 mmHg 98%
    05:00 +21°C° 0 mm 1 mps 703 mmHg 97%
    06:00 +22°C° 0 mm 1 mps 703 mmHg 96%
    07:00 +22°C° 0 mm 1 mps 704 mmHg 96%
    08:00 +23°C° 0 mm 1 mps 704 mmHg 86%
    09:00 +25°C° 0 mm 1 mps 705 mmHg 77%
    10:00 +27°C° 0 mm 1 mps 705 mmHg 68%
    11:00 +29°C° 0 mm 1 mps 705 mmHg 60%
    12:00 +31°C° 0 mm 1 mps 704 mmHg 52%
    13:00 +33°C° 0 mm 1 mps 704 mmHg 44%
    14:00 +33°C° 0 mm 1 mps 703 mmHg 44%
    15:00 +33°C° 0 mm 1 mps 703 mmHg 43%
    16:00 +32°C° 0 mm 1 mps 702 mmHg 43%
    17:00 +31°C° 0 mm 1 mps 702 mmHg 51%
    18:00 +29°C° 0 mm 1 mps 702 mmHg 58%
    19:00 +27°C° 0 mm 1 mps 702 mmHg 66%
    20:00 +26°C° 0 mm 1 mps 702 mmHg 73%
    21:00 +25°C° 0 mm 1 mps 703 mmHg 79%
    22:00 +24°C° 0 mm 1 mps 703 mmHg 86%
    23:00 +23°C° 0 mm 1 mps 703 mmHg 89%
    Show more